N624JX KIND-KPIE

Flight info

Callsign N624JX
Flight time 1h 40m
Altitude 45000
Route DAWNN1 MYS GQO LGC HONID BANGZ2
Aircraft C750/M-SBDE3FGHRWXY/S

Departure

Time 2026-04-20 01:15
Airport Indianapolis International Airport (KIND)

Arrival

Time 2026-04-20 02:56
Airport St. Petersburg Clearwater International Airport (KPIE)
Time Latitude Longitude Altitude Speed Heading
2026-04-20 00:59 39.73338 -86.28152 777 ft 0 kts 44°
2026-04-20 01:09 39.73352 -86.28156 777 ft 4 kts 315°
2026-04-20 01:09 39.73342 -86.28186 777 ft 5 kts 229°
2026-04-20 01:09 39.73358 -86.28225 777 ft 7 kts 313°
2026-04-20 01:10 39.73368 -86.28292 777 ft 10 kts 241°
2026-04-20 01:10 39.73311 -86.28423 777 ft 10 kts 303°
2026-04-20 01:10 39.73367 -86.28498 777 ft 12 kts 315°
2026-04-20 01:11 39.73425 -86.28574 777 ft 11 kts 315°
2026-04-20 01:11 39.73476 -86.28642 777 ft 10 kts 314°
2026-04-20 01:11 39.73514 -86.28702 777 ft 7 kts 292°
2026-04-20 01:11 39.73498 -86.28759 777 ft 9 kts 226°
2026-04-20 01:12 39.73450 -86.28822 776 ft 11 kts 225°
2026-04-20 01:12 39.73389 -86.28901 776 ft 13 kts 225°
2026-04-20 01:12 39.73323 -86.28988 777 ft 14 kts 224°
2026-04-20 01:12 39.73259 -86.29068 777 ft 12 kts 225°
2026-04-20 01:13 39.73196 -86.29149 777 ft 14 kts 224°
2026-04-20 01:13 39.73128 -86.29236 777 ft 14 kts 224°
2026-04-20 01:13 39.73063 -86.29318 777 ft 12 kts 224°
2026-04-20 01:13 39.73004 -86.29393 777 ft 11 kts 224°
2026-04-20 01:14 39.72946 -86.29451 777 ft 10 kts 182°
2026-04-20 01:14 39.72896 -86.29401 777 ft 10 kts 134°
2026-04-20 01:14 39.72848 -86.29338 776 ft 10 kts 135°
2026-04-20 01:14 39.72804 -86.29326 776 ft 7 kts 211°
2026-04-20 01:15 39.72752 -86.29391 776 ft 29 kts 225°
2026-04-20 01:15 39.72342 -86.29912 777 ft 131 kts 225°
2026-04-20 01:15 39.71601 -86.30851 1071 ft 157 kts 229°
2026-04-20 01:15 39.70813 -86.31874 1787 ft 161 kts 230°
2026-04-20 01:16 39.70010 -86.32959 2393 ft 175 kts 232°
2026-04-20 01:16 39.69115 -86.34146 2931 ft 194 kts 231°
2026-04-20 01:16 39.68013 -86.35336 3449 ft 225 kts 211°
2026-04-20 01:16 39.66347 -86.35612 3937 ft 259 kts 180°
2026-04-20 01:17 39.64492 -86.35410 4678 ft 273 kts 179°
2026-04-20 01:17 39.62601 -86.35154 5750 ft 274 kts 179°
2026-04-20 01:17 39.60692 -86.34892 6741 ft 278 kts 181°
2026-04-20 01:17 39.58754 -86.34636 7740 ft 282 kts 182°
2026-04-20 01:18 39.56787 -86.34379 8784 ft 287 kts 182°
2026-04-20 01:18 39.54786 -86.34115 9778 ft 291 kts 184°
2026-04-20 01:18 39.52735 -86.33846 10454 ft 306 kts 184°
2026-04-20 01:18 39.50525 -86.33570 10658 ft 332 kts 184°
2026-04-20 01:19 39.48175 -86.33255 11074 ft 346 kts 183°
2026-04-20 01:19 39.45737 -86.32918 11491 ft 358 kts 183°
2026-04-20 01:19 39.43221 -86.32586 11915 ft 368 kts 183°
2026-04-20 01:19 39.40639 -86.32252 12390 ft 376 kts 183°
2026-04-20 01:20 39.38020 -86.31902 12982 ft 380 kts 183°
2026-04-20 01:20 39.35373 -86.31550 13540 ft 385 kts 183°
2026-04-20 01:20 39.32688 -86.31231 14202 ft 389 kts 184°
2026-04-20 01:20 39.29977 -86.30958 14803 ft 393 kts 185°
2026-04-20 01:21 39.27238 -86.30666 15380 ft 398 kts 184°
2026-04-20 01:21 39.24464 -86.30342 15993 ft 402 kts 184°
2026-04-20 01:21 39.21662 -86.30020 16638 ft 406 kts 184°
2026-04-20 01:21 39.18830 -86.29711 17286 ft 410 kts 184°
2026-04-20 01:22 39.15969 -86.29399 17971 ft 415 kts 184°
2026-04-20 01:22 39.13075 -86.29075 18623 ft 420 kts 184°
2026-04-20 01:22 39.10151 -86.28746 19224 ft 424 kts 184°
2026-04-20 01:22 39.07203 -86.28418 19866 ft 427 kts 184°
2026-04-20 01:23 39.04234 -86.28091 20457 ft 430 kts 184°
2026-04-20 01:23 39.01242 -86.27761 21085 ft 434 kts 184°
2026-04-20 01:23 38.98224 -86.27425 21706 ft 437 kts 184°
2026-04-20 01:23 38.95182 -86.27088 22339 ft 440 kts 184°
2026-04-20 01:24 38.92118 -86.26750 22937 ft 444 kts 184°
2026-04-20 01:24 38.89026 -86.26410 23540 ft 448 kts 184°
2026-04-20 01:24 38.85904 -86.26065 24076 ft 452 kts 184°
2026-04-20 01:24 38.82767 -86.25718 24567 ft 454 kts 184°
2026-04-20 01:25 38.79611 -86.25370 25115 ft 456 kts 184°
2026-04-20 01:25 38.76438 -86.25021 25605 ft 459 kts 184°
2026-04-20 01:25 38.73244 -86.24671 26128 ft 462 kts 184°
2026-04-20 01:25 38.70031 -86.24318 26646 ft 465 kts 184°
2026-04-20 01:26 38.66796 -86.23963 27167 ft 468 kts 184°
2026-04-20 01:26 38.63542 -86.23606 27689 ft 471 kts 185°
2026-04-20 01:26 38.60308 -86.23252 28196 ft 474 kts 185°
2026-04-20 01:26 38.56968 -86.22912 28714 ft 473 kts 186°
2026-04-20 01:27 38.53745 -86.22944 29240 ft 469 kts 191°
2026-04-20 01:27 38.50471 -86.23046 29747 ft 473 kts 191°
2026-04-20 01:27 38.47162 -86.23104 30228 ft 477 kts 190°
2026-04-20 01:27 38.43835 -86.23163 30640 ft 480 kts 191°
2026-04-20 01:28 38.40494 -86.23250 31063 ft 482 kts 191°
2026-04-20 01:28 38.37138 -86.23342 31610 ft 481 kts 191°
2026-04-20 01:28 38.33800 -86.23415 32251 ft 479 kts 191°
2026-04-20 01:28 38.30472 -86.23485 32861 ft 477 kts 191°
2026-04-20 01:29 38.27158 -86.23565 33482 ft 476 kts 191°
2026-04-20 01:29 38.23852 -86.23648 34124 ft 474 kts 191°
2026-04-20 01:29 38.20558 -86.23726 34661 ft 473 kts 191°
2026-04-20 01:29 38.17260 -86.23801 35097 ft 474 kts 191°
2026-04-20 01:30 38.13962 -86.23879 35546 ft 475 kts 191°
2026-04-20 01:30 38.10657 -86.23957 36005 ft 474 kts 191°
2026-04-20 01:30 38.07368 -86.24032 36544 ft 473 kts 191°
2026-04-20 01:30 38.04075 -86.24110 36994 ft 474 kts 191°
2026-04-20 01:31 38.00775 -86.24190 37464 ft 474 kts 191°
2026-04-20 01:31 37.97475 -86.24266 37948 ft 475 kts 191°
2026-04-20 01:31 37.94169 -86.24342 38422 ft 475 kts 191°
2026-04-20 01:31 37.90844 -86.24295 38860 ft 484 kts 185°
2026-04-20 01:32 37.87470 -86.23640 39225 ft 496 kts 175°
2026-04-20 01:32 37.84139 -86.22425 39673 ft 500 kts 171°
2026-04-20 01:32 37.80820 -86.21120 40102 ft 499 kts 171°
2026-04-20 01:32 37.77506 -86.19843 40532 ft 498 kts 171°
2026-04-20 01:33 37.74191 -86.18581 40982 ft 497 kts 171°
2026-04-20 01:33 37.70926 -86.17324 41426 ft 497 kts 171°
2026-04-20 01:33 37.67631 -86.16043 41917 ft 495 kts 171°
2026-04-20 01:33 37.64342 -86.14775 42316 ft 494 kts 171°
2026-04-20 01:34 37.61059 -86.13521 42778 ft 492 kts 171°
2026-04-20 01:34 37.57783 -86.12267 43203 ft 491 kts 171°
2026-04-20 01:34 37.54514 -86.11009 43615 ft 491 kts 171°
2026-04-20 01:34 37.51247 -86.09754 44024 ft 490 kts 171°
2026-04-20 01:35 37.47986 -86.08507 44430 ft 490 kts 171°
2026-04-20 01:35 37.44725 -86.07261 44837 ft 489 kts 171°
2026-04-20 01:35 37.41471 -86.06018 45191 ft 489 kts 171°
2026-04-20 01:35 37.38200 -86.04770 45249 ft 494 kts 171°
2026-04-20 01:36 37.31522 -86.02229 45256 ft 509 kts 171°
2026-04-20 01:36 37.24655 -85.99610 45272 ft 523 kts 171°
2026-04-20 01:37 37.17609 -85.96937 45283 ft 535 kts 170°
2026-04-20 01:37 37.10403 -85.94201 45282 ft 547 kts 170°
2026-04-20 01:38 37.03096 -85.91435 45281 ft 550 kts 170°
2026-04-20 01:38 36.95767 -85.88667 45285 ft 550 kts 170°
2026-04-20 01:39 36.88435 -85.85904 45271 ft 550 kts 170°
2026-04-20 01:39 36.81110 -85.83149 45279 ft 550 kts 170°
2026-04-20 01:40 36.73785 -85.80400 45268 ft 550 kts 170°
2026-04-20 01:40 36.66458 -85.77655 45242 ft 550 kts 170°
2026-04-20 01:41 36.59135 -85.74918 45268 ft 550 kts 170°
2026-04-20 01:41 36.51810 -85.72184 45268 ft 550 kts 170°
2026-04-20 01:42 36.44484 -85.69458 45265 ft 550 kts 170°
2026-04-20 01:42 36.37156 -85.66733 45272 ft 551 kts 171°
2026-04-20 01:43 36.29816 -85.64012 45284 ft 550 kts 171°
2026-04-20 01:43 36.22477 -85.61294 45285 ft 551 kts 171°
2026-04-20 01:44 36.15137 -85.58583 45283 ft 550 kts 171°
2026-04-20 01:44 36.07783 -85.55872 45292 ft 552 kts 171°
2026-04-20 01:45 36.00431 -85.53165 45292 ft 551 kts 171°
2026-04-20 01:45 35.93079 -85.50466 45292 ft 551 kts 171°
2026-04-20 01:46 35.85728 -85.47770 45290 ft 551 kts 171°
2026-04-20 01:46 35.79619 -85.45536 45290 ft 551 kts 171°
2026-04-20 01:47 35.71070 -85.42412 45301 ft 551 kts 171°
2026-04-20 01:47 35.63724 -85.39735 45288 ft 550 kts 171°
2026-04-20 01:48 35.57555 -85.37493 45285 ft 552 kts 171°
2026-04-20 01:48 35.50187 -85.34814 45283 ft 553 kts 171°
2026-04-20 01:49 35.42812 -85.32143 45298 ft 553 kts 171°
2026-04-20 01:49 35.35438 -85.29473 45282 ft 553 kts 171°
2026-04-20 01:50 35.28059 -85.26810 45275 ft 553 kts 171°
2026-04-20 01:50 35.20679 -85.24149 45271 ft 552 kts 171°
2026-04-20 01:51 35.13353 -85.21515 45269 ft 552 kts 171°
2026-04-20 01:51 35.05975 -85.18865 45268 ft 553 kts 171°
2026-04-20 01:52 34.98588 -85.16283 45257 ft 549 kts 175°
2026-04-20 01:52 34.94861 -85.15558 45260 ft 538 kts 183°
2026-04-20 01:52 34.91159 -85.15453 45267 ft 529 kts 189°
2026-04-20 01:53 34.83808 -85.15703 45280 ft 529 kts 189°
2026-04-20 01:53 34.76447 -85.15879 45284 ft 529 kts 189°
2026-04-20 01:54 34.69089 -85.16107 45279 ft 529 kts 189°
2026-04-20 01:54 34.61730 -85.16300 45262 ft 528 kts 189°
2026-04-20 01:55 34.54376 -85.16515 45262 ft 529 kts 190°
2026-04-20 01:55 34.47026 -85.16715 45262 ft 529 kts 190°
2026-04-20 01:56 34.39667 -85.16923 45256 ft 529 kts 190°
2026-04-20 01:56 34.32320 -85.17126 45256 ft 528 kts 190°
2026-04-20 01:57 34.24975 -85.17332 45257 ft 528 kts 190°
2026-04-20 01:57 34.17629 -85.17535 45256 ft 528 kts 190°
2026-04-20 01:58 34.10285 -85.17739 45255 ft 527 kts 190°
2026-04-20 01:58 34.02946 -85.17942 45259 ft 527 kts 190°
2026-04-20 01:59 33.95610 -85.18145 45260 ft 527 kts 190°
2026-04-20 01:59 33.88272 -85.18347 45261 ft 527 kts 190°
2026-04-20 02:00 33.80939 -85.18548 45265 ft 527 kts 190°
2026-04-20 02:00 33.73659 -85.18749 45302 ft 527 kts 190°
2026-04-20 02:01 33.66329 -85.18950 45306 ft 527 kts 190°
2026-04-20 02:01 33.59001 -85.19151 45285 ft 527 kts 190°
2026-04-20 02:02 33.51676 -85.19352 45308 ft 527 kts 190°
2026-04-20 02:02 33.44346 -85.19551 45297 ft 527 kts 190°
2026-04-20 02:03 33.37019 -85.19751 45281 ft 527 kts 190°
2026-04-20 02:03 33.29694 -85.19950 45269 ft 527 kts 190°
2026-04-20 02:04 33.22364 -85.20150 45274 ft 527 kts 190°
2026-04-20 02:04 33.15035 -85.20348 45269 ft 527 kts 190°
2026-04-20 02:05 33.07666 -85.20168 45262 ft 539 kts 181°
2026-04-20 02:05 33.00299 -85.17833 45267 ft 560 kts 165°
2026-04-20 02:06 32.93236 -85.13750 45279 ft 566 kts 161°
2026-04-20 02:06 32.86182 -85.09627 45277 ft 565 kts 161°
2026-04-20 02:07 32.79132 -85.05492 45239 ft 565 kts 161°
2026-04-20 02:07 32.72103 -85.01384 45259 ft 561 kts 161°
2026-04-20 02:08 32.65089 -84.97296 45257 ft 562 kts 161°
2026-04-20 02:08 32.58072 -84.93206 45258 ft 562 kts 161°
2026-04-20 02:09 32.51053 -84.89129 45215 ft 562 kts 161°
2026-04-20 02:09 32.44037 -84.85055 45262 ft 562 kts 161°
2026-04-20 02:10 32.37018 -84.80990 45254 ft 562 kts 161°
2026-04-20 02:10 32.30001 -84.76931 45235 ft 562 kts 161°
2026-04-20 02:11 32.22982 -84.72880 45203 ft 561 kts 161°
2026-04-20 02:11 32.15955 -84.68830 45241 ft 562 kts 161°
2026-04-20 02:12 32.08930 -84.64786 45239 ft 561 kts 161°
2026-04-20 02:12 32.01921 -84.60763 45241 ft 560 kts 162°
2026-04-20 02:13 31.94910 -84.56742 45193 ft 560 kts 162°
2026-04-20 02:13 31.87902 -84.52732 45234 ft 560 kts 162°
2026-04-20 02:14 31.80887 -84.48723 45236 ft 561 kts 162°
2026-04-20 02:14 31.73873 -84.44722 45240 ft 560 kts 162°
2026-04-20 02:15 31.66779 -84.41056 45203 ft 549 kts 171°
2026-04-20 02:15 31.63115 -84.40004 45224 ft 538 kts 179°
2026-04-20 02:15 31.59430 -84.39538 45230 ft 527 kts 187°
2026-04-20 02:16 31.52152 -84.39551 45245 ft 523 kts 189°
2026-04-20 02:16 31.44868 -84.39533 45239 ft 523 kts 189°
2026-04-20 02:17 31.37595 -84.39559 45229 ft 522 kts 189°
2026-04-20 02:17 31.30304 -84.39563 45229 ft 524 kts 189°
2026-04-20 02:18 31.23014 -84.39574 45220 ft 524 kts 189°
2026-04-20 02:18 31.15724 -84.39584 45224 ft 524 kts 189°
2026-04-20 02:19 31.08433 -84.39593 45228 ft 525 kts 189°
2026-04-20 02:19 31.01117 -84.39605 45231 ft 526 kts 189°
2026-04-20 02:20 30.93798 -84.39614 45228 ft 526 kts 189°
2026-04-20 02:20 30.86529 -84.39624 45206 ft 526 kts 189°
2026-04-20 02:21 30.75546 -84.39640 45202 ft 526 kts 189°
2026-04-20 02:22 30.68220 -84.39648 45207 ft 527 kts 189°
2026-04-20 02:22 30.60888 -84.39659 45196 ft 527 kts 189°
2026-04-20 02:23 30.53562 -84.39668 45193 ft 527 kts 189°
2026-04-20 02:23 30.46229 -84.39679 45188 ft 527 kts 189°
2026-04-20 02:24 30.38854 -84.39202 45183 ft 542 kts 179°
2026-04-20 02:24 30.35156 -84.38168 45180 ft 553 kts 171°
2026-04-20 02:24 30.31533 -84.36546 45209 ft 564 kts 163°
2026-04-20 02:25 30.24840 -84.31583 45212 ft 581 kts 146°
2026-04-20 02:25 30.18707 -84.25449 45200 ft 582 kts 145°
2026-04-20 02:26 30.12554 -84.19399 45204 ft 581 kts 146°
2026-04-20 02:26 30.06411 -84.13323 45203 ft 582 kts 145°
2026-04-20 02:27 30.00260 -84.07262 45204 ft 581 kts 146°
2026-04-20 02:27 29.94155 -84.01262 45138 ft 580 kts 146°
2026-04-20 02:27 29.91083 -83.98233 44393 ft 580 kts 146°
2026-04-20 02:28 29.88022 -83.95230 43711 ft 577 kts 146°
2026-04-20 02:28 29.84956 -83.92233 43033 ft 579 kts 146°
2026-04-20 02:28 29.81808 -83.89372 42323 ft 573 kts 153°
2026-04-20 02:28 29.78440 -83.86995 41661 ft 565 kts 159°
2026-04-20 02:29 29.74991 -83.84850 40997 ft 564 kts 161°
2026-04-20 02:29 29.71519 -83.82704 40326 ft 568 kts 160°
2026-04-20 02:29 29.68076 -83.80447 39590 ft 571 kts 159°
2026-04-20 02:29 29.64637 -83.78154 38966 ft 572 kts 160°
2026-04-20 02:30 29.61158 -83.75928 38227 ft 571 kts 161°
2026-04-20 02:30 29.57672 -83.73744 37549 ft 571 kts 160°
2026-04-20 02:30 29.54205 -83.71520 36869 ft 571 kts 159°
2026-04-20 02:30 29.50759 -83.69266 36191 ft 570 kts 159°
2026-04-20 02:31 29.47306 -83.67039 35514 ft 568 kts 160°
2026-04-20 02:31 29.43850 -83.64853 34833 ft 567 kts 160°
2026-04-20 02:31 29.40401 -83.62659 34155 ft 566 kts 159°
2026-04-20 02:31 29.36965 -83.60444 33435 ft 567 kts 159°
2026-04-20 02:32 29.33450 -83.58553 32740 ft 547 kts 169°
2026-04-20 02:32 29.29850 -83.57301 32120 ft 538 kts 172°
2026-04-20 02:32 29.26275 -83.56111 31480 ft 532 kts 172°
2026-04-20 02:32 29.22738 -83.54919 30845 ft 528 kts 172°
2026-04-20 02:33 29.19237 -83.53722 30208 ft 523 kts 172°
2026-04-20 02:33 29.15765 -83.52542 29542 ft 519 kts 172°
2026-04-20 02:33 29.13435 -83.51760 29130 ft 515 kts 172°
2026-04-20 02:33 29.10058 -83.50626 28520 ft 511 kts 171°
2026-04-20 02:34 29.06665 -83.49479 27902 ft 506 kts 171°
2026-04-20 02:34 29.03305 -83.48341 27303 ft 502 kts 171°
2026-04-20 02:34 28.99970 -83.47217 26705 ft 497 kts 171°
2026-04-20 02:34 28.96690 -83.45968 26090 ft 500 kts 164°
2026-04-20 02:35 28.93523 -83.44341 25521 ft 498 kts 161°
2026-04-20 02:35 28.90398 -83.42668 24931 ft 494 kts 161°
2026-04-20 02:35 28.87289 -83.41048 24346 ft 489 kts 162°
2026-04-20 02:35 28.84197 -83.39485 23763 ft 484 kts 162°
2026-04-20 02:36 28.81137 -83.37920 23135 ft 479 kts 161°
2026-04-20 02:36 28.78121 -83.36343 22560 ft 474 kts 161°
2026-04-20 02:36 28.75137 -83.34792 22005 ft 469 kts 161°
2026-04-20 02:36 28.72174 -83.33276 21448 ft 464 kts 161°
2026-04-20 02:37 28.69244 -83.31776 20900 ft 460 kts 161°
2026-04-20 02:37 28.66347 -83.30280 20353 ft 455 kts 161°
2026-04-20 02:37 28.63479 -83.28799 19816 ft 451 kts 161°
2026-04-20 02:37 28.60637 -83.27340 19279 ft 446 kts 161°
2026-04-20 02:38 28.57819 -83.25896 18755 ft 442 kts 161°
2026-04-20 02:38 28.55029 -83.24462 18204 ft 437 kts 160°
2026-04-20 02:38 28.52269 -83.23044 17668 ft 434 kts 160°
2026-04-20 02:38 28.49528 -83.21640 17165 ft 431 kts 160°
2026-04-20 02:39 28.46802 -83.20243 16651 ft 428 kts 160°
2026-04-20 02:39 28.44098 -83.18857 16092 ft 425 kts 160°
2026-04-20 02:39 28.41421 -83.17486 15780 ft 422 kts 160°
2026-04-20 02:39 28.38749 -83.16120 15279 ft 419 kts 159°
2026-04-20 02:40 28.36099 -83.14784 14718 ft 413 kts 160°
2026-04-20 02:40 28.33472 -83.13488 14175 ft 410 kts 160°
2026-04-20 02:40 28.30873 -83.12199 13606 ft 405 kts 159°
2026-04-20 02:40 28.28304 -83.10909 13071 ft 402 kts 159°
2026-04-20 02:41 28.25754 -83.09631 12820 ft 400 kts 159°
2026-04-20 02:41 28.23208 -83.08366 12552 ft 398 kts 159°
2026-04-20 02:41 28.20671 -83.07115 12228 ft 396 kts 159°
2026-04-20 02:41 28.18140 -83.05878 11936 ft 394 kts 159°
2026-04-20 02:42 28.15657 -83.04670 11721 ft 394 kts 159°
2026-04-20 02:42 28.13145 -83.03455 11548 ft 392 kts 159°
2026-04-20 02:42 28.10636 -83.02247 11386 ft 392 kts 159°
2026-04-20 02:42 28.08214 -83.01081 11140 ft 364 kts 159°
2026-04-20 02:43 28.05961 -82.99995 10881 ft 341 kts 159°
2026-04-20 02:43 28.03843 -82.98976 10630 ft 321 kts 159°
2026-04-20 02:43 28.01853 -82.98021 10371 ft 301 kts 159°
2026-04-20 02:43 27.99934 -82.97107 10075 ft 299 kts 159°
2026-04-20 02:44 27.98003 -82.96194 9667 ft 307 kts 159°
2026-04-20 02:44 27.96028 -82.95271 9260 ft 304 kts 159°
2026-04-20 02:44 27.94091 -82.94373 8858 ft 299 kts 159°
2026-04-20 02:44 27.92171 -82.93494 8459 ft 297 kts 159°
2026-04-20 02:45 27.90262 -82.92625 8031 ft 295 kts 159°
2026-04-20 02:45 27.88353 -82.91767 7592 ft 296 kts 159°
2026-04-20 02:45 27.86455 -82.90919 7159 ft 290 kts 159°
2026-04-20 02:45 27.84582 -82.90094 6768 ft 289 kts 159°
2026-04-20 02:46 27.82722 -82.89291 6384 ft 284 kts 159°
2026-04-20 02:46 27.80870 -82.88505 5990 ft 284 kts 159°
2026-04-20 02:46 27.79025 -82.87731 5650 ft 281 kts 159°
2026-04-20 02:46 27.77188 -82.86964 5311 ft 281 kts 159°
2026-04-20 02:47 27.75354 -82.86207 4965 ft 279 kts 159°
2026-04-20 02:47 27.73537 -82.85460 4611 ft 278 kts 159°
2026-04-20 02:47 27.71720 -82.84718 4263 ft 276 kts 159°
2026-04-20 02:47 27.69910 -82.83983 3944 ft 279 kts 159°
2026-04-20 02:48 27.68174 -82.83034 3540 ft 278 kts 139°
2026-04-20 02:48 27.67130 -82.81298 3120 ft 262 kts 107°
2026-04-20 02:48 27.66960 -82.79360 2725 ft 242 kts 77°
2026-04-20 02:48 27.67373 -82.77580 2465 ft 228 kts 71°
2026-04-20 02:49 27.67763 -82.75847 2191 ft 222 kts 73°
2026-04-20 02:49 27.68104 -82.74198 1974 ft 215 kts 73°
2026-04-20 02:49 27.68445 -82.72580 1987 ft 213 kts 73°
2026-04-20 02:49 27.68794 -82.70953 1992 ft 208 kts 73°
2026-04-20 02:50 27.69106 -82.69462 1963 ft 187 kts 72°
2026-04-20 02:50 27.69409 -82.68048 1972 ft 184 kts 72°
2026-04-20 02:50 27.69878 -82.66746 1941 ft 177 kts 50°
2026-04-20 02:50 27.70814 -82.65878 1963 ft 176 kts 25°
2026-04-20 02:51 27.71986 -82.65593 1964 ft 173 kts 360°
2026-04-20 02:51 27.73176 -82.65784 1994 ft 174 kts 351°
2026-04-20 02:51 27.74383 -82.65984 1987 ft 168 kts 353°
2026-04-20 02:51 27.75508 -82.66176 1991 ft 166 kts 352°
2026-04-20 02:52 27.76637 -82.66371 1981 ft 165 kts 352°
2026-04-20 02:52 27.77770 -82.66568 1985 ft 164 kts 352°
2026-04-20 02:52 27.78888 -82.66760 1973 ft 158 kts 352°
2026-04-20 02:52 27.79880 -82.66932 1942 ft 133 kts 353°
2026-04-20 02:53 27.80757 -82.67081 1768 ft 122 kts 353°
2026-04-20 02:53 27.81574 -82.67222 1618 ft 116 kts 353°
2026-04-20 02:53 27.82370 -82.67359 1472 ft 117 kts 353°
2026-04-20 02:53 27.83177 -82.67498 1341 ft 118 kts 353°
2026-04-20 02:54 27.83988 -82.67634 1183 ft 118 kts 352°
2026-04-20 02:54 27.84812 -82.67768 1009 ft 121 kts 352°
2026-04-20 02:54 27.85638 -82.67914 884 ft 119 kts 351°
2026-04-20 02:54 27.86467 -82.68060 742 ft 121 kts 350°
2026-04-20 02:55 27.87310 -82.68197 577 ft 122 kts 350°
2026-04-20 02:55 27.88139 -82.68342 415 ft 119 kts 349°
2026-04-20 02:55 27.88959 -82.68486 258 ft 120 kts 348°
2026-04-20 02:55 27.89784 -82.68628 84 ft 120 kts 349°
2026-04-20 02:56 27.90567 -82.68764 22 ft 97 kts 351°
2026-04-20 02:56 27.91016 -82.68840 19 ft 42 kts 351°
2026-04-20 02:56 27.91186 -82.68869 18 ft 17 kts 351°
2026-04-20 02:56 27.91235 -82.68925 18 ft 8 kts 264°
2026-04-20 02:57 27.91228 -82.68980 19 ft 7 kts 261°
2026-04-20 02:57 27.91211 -82.69025 21 ft 7 kts 213°
2026-04-20 02:57 27.91157 -82.69022 22 ft 8 kts 171°
2026-04-20 02:57 27.91102 -82.69013 22 ft 8 kts 171°
2026-04-20 02:58 27.91034 -82.69001 21 ft 10 kts 171°
2026-04-20 02:58 27.90967 -82.68989 20 ft 10 kts 171°
2026-04-20 02:58 27.90891 -82.68976 23 ft 14 kts 171°
2026-04-20 02:58 27.90796 -82.68960 23 ft 14 kts 171°
2026-04-20 02:59 27.90703 -82.68943 21 ft 13 kts 171°
2026-04-20 02:59 27.90613 -82.68928 21 ft 13 kts 172°
2026-04-20 02:59 27.90526 -82.68913 23 ft 13 kts 171°
2026-04-20 02:59 27.90466 -82.68931 23 ft 9 kts 250°
2026-04-20 03:00 27.90457 -82.68984 21 ft 5 kts 261°
2026-04-20 03:00 27.90472 -82.69006 23 ft 3 kts 341°
2026-04-20 03:00 27.90483 -82.69008 22 ft 0 kts 351°